Weather History for Worland, WY

Change the Weather History Date:

Thursday, April 4, 2013

  Actual Average Record
Temperature  
Mean Temperature 52 °F 42 °F  
Max Temperature 71 °F 57 °F 79 °F (1992)
Min Temperature 33 °F 28 °F 13 °F (1968)
Degree Days  
Heating Degree Days 13 23  
Month to date heating degree days 70 92  
Since 1 July heating degree days 6525 6978  
Cooling Degree Days 0 0  
Month to date cooling degree days 0 0  
Year to date cooling degree days 0 0  
Growing Degree Days 2 (Base 50)    
Moisture  
Dew Point 26 °F    
Average Humidity 44    
Maximum Humidity 70    
Minimum Humidity 17    
Precipitation  
Precipitation 0.00 in 0.01 in 0.12 in (1994)
Month to date precipitation 0.00 0.06  
Year to date precipitation 0.59 0.94  
Sea Level Pressure  
Sea Level Pressure 29.91 in    
Wind  
Wind Speed 5 mph (SSE)    
Max Wind Speed 20 mph    
Max Gust Speed 24 mph    
Visibility 10 miles    
Events      
T = Trace of Precipitation, MM = Missing Value Source: NWS Daily Summary

Daily Weather History Graph

Daily Weather History Graph

Search for Another Location

Airport:

Trip Planner

Search our weather history database for the weather conditions in past years. The results will help you decide how hot, cold, wet, or windy it might be!

Date:

Astronomy

Apr. 04, 2013 Rise Set
Actual Time 6:47 AM MDT 7:42 PM MDT
Civil Twilight 6:17 AM MDT 8:12 PM MDT
Nautical Twilight 5:43 AM MDT 8:47 PM MDT
Astronomical Twilight 5:06 AM MDT 9:23 PM MDT
Moon 3:27 AM MDT (4/4) 1:53 PM MDT (4/4)
Length of Visible Light 13h 54m
Length of Day
12h 55m
Waning Crescent, 33% of the Moon is Illuminated
Apr 4
Waning Crescent
Apr 10
New
Apr 18
First Quarter
Apr 25
Full
May 2
Last Quarter

Hourly Weather History & Observations

Time (MDT) Temp. Windchill Dew Point Humidity Pressure Visibility Wind Dir Wind Speed Gust Speed Precip Events Conditions
2:53 AM 42.1 °F 40.2 °F 26.1 °F 53% 30.03 in 10.0 mi South 3.5 mph - N/A   Unknown
3:53 AM 37.0 °F 32.4 °F 26.1 °F 65% 30.03 in 10.0 mi SE 5.8 mph - N/A   Clear
4:53 AM 39.0 °F 36.8 °F 26.1 °F 60% 30.01 in 10.0 mi Variable 3.5 mph - N/A   Clear
5:53 AM 42.1 °F 40.2 °F 26.1 °F 53% 30.00 in 10.0 mi Variable 3.5 mph - N/A   Partly Cloudy
6:53 AM 33.1 °F 28.7 °F 25.0 °F 72% 30.03 in 10.0 mi WSW 4.6 mph - N/A   Clear
7:53 AM 36.0 °F 32.1 °F 27.0 °F 70% 30.05 in 10.0 mi West 4.6 mph - N/A   Partly Cloudy
8:53 AM 45.0 °F - 28.9 °F 53% 30.02 in 10.0 mi Calm Calm - N/A   Clear
9:53 AM 52.0 °F - 28.0 °F 40% 30.01 in 10.0 mi Calm Calm - N/A   Clear
10:53 AM 57.0 °F - 28.9 °F 34% 30.00 in 10.0 mi Variable 3.5 mph - N/A   Clear
11:53 AM 63.0 °F - 26.1 °F 25% 29.98 in 10.0 mi ESE 3.5 mph - N/A   Clear
12:53 PM 66.0 °F - 25.0 °F 21% 29.94 in 10.0 mi ENE 5.8 mph - N/A   Clear
1:53 PM 66.0 °F - 21.0 °F 18% 29.94 in 10.0 mi Variable 3.5 mph - N/A   Clear
2:53 PM 68.0 °F - 23.0 °F 18% 29.86 in 10.0 mi Variable 4.6 mph - N/A   Clear
3:53 PM 68.0 °F - 23.0 °F 18% 29.85 in 10.0 mi ESE 8.1 mph - N/A   Clear
4:53 PM 71.1 °F - 26.1 °F 19% 29.81 in 10.0 mi SE 15.0 mph - N/A   Partly Cloudy
5:53 PM 69.1 °F - 25.0 °F 19% 29.79 in 10.0 mi ESE 13.8 mph - N/A   Overcast
6:53 PM 68.0 °F - 21.9 °F 17% 29.79 in 10.0 mi South 8.1 mph - N/A   Mostly Cloudy
7:53 PM 60.1 °F - 25.0 °F 26% 29.80 in 10.0 mi SW 8.1 mph - N/A   Mostly Cloudy
8:53 PM 59.0 °F - 27.0 °F 29% 29.79 in 10.0 mi SW 4.6 mph - N/A   Mostly Cloudy
9:53 PM 59.0 °F - 28.0 °F 31% 29.77 in 10.0 mi NNE 4.6 mph - N/A   Partly Cloudy
10:53 PM 55.9 °F - 28.0 °F 34% 29.75 in 10.0 mi SE 5.8 mph - N/A   Clear
11:53 PM 54.0 °F - 30.0 °F 40% 29.74 in 10.0 mi Calm Calm - N/A   Mostly Cloudy